Home   Weather   Tamworth   Past weeks

Flag for Australia Past Weather in Tamworth, New South Wales, Australia — Yesterday and Last 2 Weeks

Now
84 °F

Sunny.


Feels Like: 81 °F
Forecast: 56 / 86 °F
Wind: 5 mph from Southeast

Location: Tamworth Airport

Current Time: Dec 10, 2016 at 4:19:16 pm

Latest Report: Dec 10, 2016 at 4:00 pm


Visibility: N/A

Pressure: 30.04 "Hg

Humidity: 18%

Dew Point: 36 °F

Location of TamworthLocation

Past Weather in Tamworth — Graph

°F

Tamworth Temperature Yesterday

Maximum temperature yesterday: 79 °F (at 4:00 pm)
Minimum temperature yesterday: 57 °F (at 11:00 pm)
Average temperature yesterday: 68 °F

High & Low Weather Summary for the Past Weeks

 TemperatureHumidityPressure
High104 °F (Dec 3, 3:00 pm)88% (Dec 7, 4:00 am)30.15 "Hg (Dec 7, 4:00 am)
Low46 °F (Nov 26, 5:30 am)9% (Nov 26, 6:00 pm)29.59 "Hg (Dec 8, 6:00 pm)
Average76 °F45%29.90 "Hg
* Reported Nov 25 3:00 pm — Dec 10 3:00 pm, Tamworth, Weather by CustomWeather, © 2016

Note: Actual official high and low records may vary slightly from our data, if they occured in-between our weather recording intervals... More about our weather records

Advertising

Tamworth Weather History for the Previous 24 Hours

Scroll right to see more
 ConditionsComfort  
Time TempWeatherWind HumidityBarometerVisibility
3:00 pm
Sat, Dec 10
84 °FSunny.6 mph20%30.07 "HgN/A
2:30 pm84 °FSunny.6 mph22%30.09 "HgN/A
2:00 pm81 °FSunny.7 mph24%30.09 "HgN/A
1:30 pm81 °FSunny.7 mph26%30.09 "HgN/A
1:00 pm79 °FSunny.7 mph26%30.12 "HgN/A
12:00 pm77 °FSunny.6 mph30%30.15 "HgN/A
11:00 am75 °FSunny.7 mph27%30.15 "HgN/A
10:30 am73 °FSunny.5 mph33%30.15 "HgN/A
10:00 am73 °FSunny.3 mph44%30.15 "HgN/A
9:00 am70 °FSunny.8 mph46%30.15 "HgN/A
8:30 am68 °FSunny.8 mph49%30.15 "HgN/A
8:00 am66 °FSunny.8 mph52%30.15 "HgN/A
7:30 am64 °FSunny.7 mph56%30.15 "HgN/A
7:00 am63 °FSunny.7 mph59%30.12 "HgN/A
6:30 am57 °FSunny.9 mph67%30.12 "HgN/A
6:00 am55 °FSunny.10 mph72%30.12 "HgN/A
5:30 am55 °FClear.10 mph67%30.09 "HgN/A
5:00 am54 °FClear.10 mph72%30.09 "HgN/A
4:00 am52 °FClear.13 mph77%30.07 "HgN/A
3:00 am52 °FClear.9 mph77%30.04 "HgN/A
2:00 am54 °FClear.8 mph72%30.04 "HgN/A
1:30 am54 °FClear.7 mph72%30.04 "HgN/A
1:00 am57 °FClear.5 mph59%30.04 "HgN/A
12:30 am55 °FClear.5 mph67%30.04 "HgN/A
12:00 am54 °FClear.7 mph72%30.04 "HgN/A
11:30 pm
Fri, Dec 9
57 °FClear.7 mph59%30.04 "HgN/A
11:00 pm57 °FClear.7 mph59%30.04 "HgN/A
10:00 pm61 °FClear.9 mph48%30.04 "HgN/A
9:30 pm61 °FClear.8 mph52%30.01 "HgN/A
9:00 pm63 °FClear.9 mph42%30.01 "HgN/A
8:30 pm63 °FClear.8 mph42%29.98 "HgN/A
8:00 pm66 °FClear.8 mph37%29.98 "HgN/A
7:30 pm72 °FSunny.8 mph27%29.95 "HgN/A
7:00 pm75 °FSunny.9 mph21%29.95 "HgN/A
6:00 pm79 °FSunny.13 mph20%29.92 "HgN/A
5:00 pm79 °FSunny.12 mph20%29.89 "HgN/A
4:30 pm77 °FSunny.13 mph18%29.89 "HgN/A
4:00 pm79 °FSunny.13 mph18%29.92 "HgN/A
Weather by CustomWeather, © 2016

See weather overviewHow to use our weather pages